User: anonymous   Login
Location: Unspecified
(0.0000°N, 0.0000°E)
Time: 23:48:49
(UTC+00:00)
Language:

S80/T - Orbit

View from above orbital plane
View from above orbital plane
View from above satellite
View from above satellite

Ground track
Ground track

The orbit data is extracted from the following two-line orbital elements,

1 22078U 92052C   17347.02109372 -.00000057 +00000-0 +18570-4 0  9991
2 22078 066.0857 302.2785 0016832 280.6425 079.2698 12.86788983190503
Epoch (UTC): 13 December 2017 00:30:22
Eccentricity: 0.0016832
inclination: 66.0857°
perigee height: 1301 km
apogee height: 1327 km
right ascension of ascending node: 302.2785°
argument of perigee: 280.6425°
revolutions per day: 12.86788983
mean anomaly at epoch: 79.2698°
orbit number at epoch: 19050

The dashed part of the orbit path shows where the satellite is in the earth's shadow,  

DLR